Probability
0 0 0 0 0 0 0 0 0 0 0 3 6 6 13 13 13 23 32 39 42 58 58 65 65 61 61 71 65 65 68 71 71 71 71 71 65 65 58 55 52 58 52 48
0 0 0 0 0 0 0 0 0 0 0 0 3 13 23 19 16 19 29 39 42 58 58 61 61 61 61 61 71 74 68 68 65 65 68 68 68 58 52 55 58 52 45 42
0 0 0 0 0 0 0 0 0 0 0 0 3 16 23 32 35 32 32 39 45 52 61 65 61 61 58 58 68 71 71 68 65 65 58 58 52 55 52 52 48 45 42 39
0 0 0 0 0 0 0 0 0 0 0 0 10 16 23 26 26 32 29 45 55 52 58 55 61 58 61 52 52 61 61 61 58 55 58 55 55 52 48 48 42 42 39 32
0 0 0 0 0 0 0 0 0 3 3 3 6 10 10 10 19 29 39 45 48 48 52 52 52 55 48 45 45 58 55 55 55 55 58 58 55 55 48 39 42 39 39 39
0 0 0 0 3 3 3 0 6 6 10 13 10 6 6 23 23 32 42 55 45 42 45 45 45 42 48 48 55 58 58 55 55 52 52 55 58 48 45 42 39 39 39 42
0 0 0 6 3 3 0 3 10 10 13 19 23 16 16 23 39 39 55 45 45 39 42 42 35 42 48 52 45 45 45 48 52 52 52 52 52 48 48 39 39 39 39 39
0 0 3 3 6 3 10 10 10 13 16 26 26 23 29 39 48 48 58 52 52 45 42 42 42 39 45 42 45 42 45 48 48 45 39 39 45 45 39 35 39 42 42 39
3 3 10 13 16 13 16 19 19 16 23 26 26 29 35 48 52 48 48 45 48 48 45 45 42 45 42 42 45 45 42 42 45 42 42 39 39 39 35 35 32 32 32 32
10 3 10 16 16 16 19 23 19 16 16 26 29 32 42 45 48 55 48 48 45 48 48 48 48 48 48 45 45 45 45 42 45 45 42 42 39 39 29 29 29 32 32 35
10 10 13 10 13 19 19 19 19 16 19 26 26 32 42 45 45 48 48 45 48 45 52 52 52 48 48 48 45 45 45 45 39 42 42 42 35 35 32 32 26 29 32 29
10 10 13 10 6 13 13 16 13 23 23 26 32 32 35 42 45 48 52 45 45 45 42 39 42 48 45 48 42 42 45 42 39 39 39 39 32 29 13 13 13 10 13 16
10 13 10 6 6 10 10 13 19 19 26 35 35 32 39 35 39 45 45 45 45 39 39 39 39 45 45 42 39 39 42 42 42 32 35 39 39 32 23 6 3 0 0 3
10 10 6 6 10 10 13 16 26 26 26 29 26 26 32 32 32 42 42 42 39 39 39 39 39 42 42 42 39 39 39 26 29 32 32 32 32 32 29 23 16 13 0 0
10 10 10 10 10 10 16 16 16 19 23 19 26 32 32 29 32 35 35 35 32 32 35 35 35 35 42 35 35 32 29 29 26 26 26 26 35 32 26 23 23 19 19 10
10 10 10 10 10 13 10 16 16 19 19 19 16 23 19 19 26 32 32 35 32 29 29 32 35 35 29 29 29 26 23 13 19 26 29 26 26 23 19 23 16 13 19 16
13 13 10 10 13 6 10 16 13 19 19 23 23 19 19 19 26 26 26 26 29 29 29 29 23 23 23 26 26 16 19 23 6 16 19 19 16 13 16 13 13 10 13 13
13 10 3 6 10 6 6 10 6 10 13 16 23 23 19 16 26 26 19 26 26 26 23 16 19 19 19 19 26 19 16 16 19 23 16 16 10 10 13 10 10 13 10 10
10 10 6 6 6 10 6 6 3 3 6 13 16 19 16 16 26 23 23 26 23 23 23 16 6 13 13 13 13 23 13 13 6 10 10 6 6 6 10 10 10 10 10 13
10 10 10 6 6 3 3 3 6 3 3 6 6 10 16 16 16 23 16 13 13 13 16 16 10 10 13 13 10 10 13 13 10 6 6 3 6 6 10 16 16 16 10 13
6 6 6 3 3 3 3 3 3 6 10 6 6 13 6 6 13 23 23 16 13 10 13 3 13 16 6 10 0 10 10 10 10 10 6 6 6 13 10 19 16 13 13 13
6 6 3 3 3 3 3 3 0 0 6 6 10 6 3 6 6 13 10 13 6 3 10 10 10 3 3 0 3 6 10 10 10 10 6 6 6 6 6 13 13 16 10 3
6 6 3 3 3 3 3 3 3 3 6 6 6 6 10 10 0 3 10 13 13 0 0 6 3 0 0 3 3 3 6 6 10 6 6 6 6 6 6 3 3 6 3 3
6 6 3 3 3 3 3 3 3 3 3 6 6 10 10 10 10 6 6 0 0 0 0 0 0 0 0 3 3 3 6 6 6 3 3 0 0 3 3 3 3 3 3 3
13 6 3 3 3 6 3 3 3 3 3 3 3 10 6 10 6 6 10 6 0 0 0 0 0 0 0 0 0 0 3 3 0 0 0 0 0 0 0 0 0 0 0 0
6 3 6 6 3 3 0 0 0 0 3 0 0 0 6 6 10 10 13 10 0 0 0 0 0 0 0 0 0 3 3 0 0 0 0 0 0 0 0 0 0 0 0 0
3 3 0 3 0 0 0 0 0 0 0 3 0 3 3 3 6 6 6 3 3 0 0 0 0 0 0 0 3 3 3 0 0 0 0 0 0 0 0 0 0 0 0 0
Height
5873 5876 5879 5882 5885 5888 5890 5893 5896 5898 5899 5900 5900 5901 5902 5902 5902 5902 5902 5902 5902 5902 5902 5901 5901 5901 5901 5901 5901 5900 5899 5899 5898 5897 5897 5896 5895 5895 5894 5893 5892 5891 5890 5889
5866 5870 5872 5875 5878 5881 5884 5886 5889 5891 5893 5894 5895 5895 5896 5897 5897 5898 5898 5898 5898 5898 5898 5898 5898 5898 5897 5897 5897 5896 5895 5895 5894 5893 5893 5892 5892 5891 5890 5889 5888 5887 5886 5884
5860 5863 5865 5868 5872 5874 5877 5879 5882 5884 5887 5887 5889 5889 5890 5891 5892 5892 5893 5893 5893 5893 5893 5893 5893 5893 5893 5893 5892 5891 5891 5890 5889 5889 5888 5888 5887 5886 5885 5884 5883 5882 5881 5880
5853 5855 5858 5864 5865 5867 5870 5872 5874 5876 5879 5880 5882 5883 5884 5885 5886 5886 5887 5887 5888 5888 5888 5888 5888 5888 5888 5888 5887 5887 5886 5885 5884 5883 5882 5882 5882 5881 5880 5879 5878 5877 5876 5874
5845 5848 5851 5855 5857 5860 5863 5864 5867 5870 5872 5874 5875 5877 5877 5878 5879 5880 5881 5881 5882 5882 5882 5883 5883 5883 5883 5883 5882 5882 5881 5880 5879 5878 5877 5876 5876 5875 5875 5874 5872 5871 5870 5868
5837 5841 5844 5848 5850 5853 5856 5857 5861 5863 5865 5867 5868 5870 5872 5872 5873 5874 5875 5875 5876 5876 5876 5877 5877 5877 5877 5876 5876 5876 5875 5874 5873 5872 5871 5871 5870 5869 5868 5867 5866 5865 5863 5862
5830 5833 5836 5840 5842 5846 5849 5851 5853 5855 5857 5859 5861 5863 5865 5865 5866 5867 5868 5869 5869 5870 5870 5871 5871 5871 5870 5870 5869 5869 5868 5867 5867 5866 5865 5864 5863 5862 5861 5860 5859 5858 5856 5855
5822 5826 5831 5831 5834 5837 5840 5842 5844 5846 5848 5851 5853 5855 5857 5858 5859 5860 5861 5862 5862 5863 5863 5864 5864 5864 5864 5863 5863 5862 5862 5861 5860 5859 5858 5857 5856 5855 5854 5853 5852 5850 5848 5847
5815 5819 5821 5823 5826 5828 5831 5834 5836 5838 5841 5843 5845 5847 5849 5851 5852 5853 5854 5855 5856 5856 5856 5856 5857 5857 5856 5856 5855 5855 5854 5853 5852 5851 5851 5850 5849 5847 5846 5845 5843 5842 5840 5838
5805 5809 5813 5815 5818 5820 5822 5825 5828 5830 5833 5835 5838 5840 5841 5843 5844 5846 5847 5847 5848 5848 5849 5849 5849 5849 5848 5848 5847 5847 5846 5845 5844 5843 5842 5841 5840 5839 5837 5836 5834 5833 5831 5829
5797 5801 5804 5806 5809 5811 5814 5817 5819 5822 5824 5827 5829 5831 5833 5835 5836 5838 5839 5839 5840 5840 5840 5840 5840 5840 5840 5839 5838 5837 5836 5836 5835 5834 5833 5832 5831 5830 5828 5827 5825 5823 5821 5819
5788 5792 5795 5798 5800 5803 5805 5808 5810 5813 5815 5818 5820 5822 5824 5826 5827 5828 5830 5830 5831 5831 5831 5831 5831 5831 5830 5830 5829 5828 5827 5826 5825 5824 5823 5822 5821 5820 5818 5816 5814 5812 5810 5808
5779 5782 5785 5789 5792 5794 5796 5799 5801 5804 5806 5809 5811 5813 5814 5816 5818 5819 5820 5821 5821 5822 5822 5822 5821 5821 5821 5820 5819 5819 5818 5817 5815 5814 5813 5812 5810 5809 5807 5805 5803 5801 5799 5797
5770 5773 5776 5779 5782 5785 5788 5790 5792 5795 5797 5800 5802 5803 5805 5807 5808 5810 5811 5811 5812 5812 5812 5812 5812 5811 5811 5810 5809 5808 5807 5806 5805 5804 5802 5801 5799 5797 5795 5794 5792 5790 5788 5786
5761 5764 5767 5770 5773 5776 5778 5781 5783 5786 5788 5790 5792 5793 5795 5797 5798 5800 5801 5801 5802 5802 5802 5802 5802 5801 5800 5800 5799 5797 5796 5795 5794 5793 5791 5789 5787 5785 5783 5782 5780 5778 5776 5774
5752 5755 5758 5761 5764 5767 5769 5772 5774 5776 5778 5780 5782 5784 5785 5786 5788 5789 5791 5791 5792 5792 5792 5792 5792 5791 5790 5789 5788 5787 5786 5785 5783 5782 5780 5778 5776 5774 5772 5770 5768 5766 5764 5761
5743 5746 5749 5752 5755 5758 5760 5762 5765 5767 5768 5770 5772 5774 5775 5777 5778 5779 5780 5781 5782 5782 5782 5782 5781 5781 5780 5779 5777 5777 5776 5775 5773 5771 5769 5767 5765 5763 5761 5759 5757 5754 5752 5749
5734 5737 5740 5743 5746 5749 5751 5753 5755 5757 5759 5761 5762 5764 5766 5767 5768 5769 5770 5770 5771 5771 5771 5771 5771 5770 5769 5769 5768 5767 5766 5764 5763 5761 5759 5757 5754 5752 5750 5748 5745 5743 5740 5738
5725 5728 5732 5734 5737 5740 5742 5744 5746 5748 5749 5751 5752 5754 5756 5757 5758 5759 5760 5760 5760 5760 5761 5760 5760 5760 5759 5759 5758 5757 5755 5754 5752 5750 5748 5745 5743 5741 5739 5737 5734 5731 5729 5726
5717 5719 5722 5726 5728 5731 5733 5735 5737 5739 5740 5741 5743 5744 5746 5747 5748 5749 5749 5750 5750 5750 5750 5749 5749 5749 5748 5748 5747 5746 5745 5743 5741 5739 5736 5734 5732 5730 5727 5725 5723 5720 5718 5715
5709 5712 5714 5717 5720 5722 5724 5726 5728 5730 5731 5733 5734 5735 5736 5737 5738 5739 5739 5739 5739 5739 5739 5738 5738 5738 5738 5737 5736 5735 5734 5732 5730 5728 5726 5723 5721 5719 5716 5714 5712 5710 5707 5704
5702 5704 5707 5709 5711 5714 5716 5718 5719 5721 5722 5724 5725 5726 5727 5728 5728 5728 5729 5729 5729 5728 5728 5728 5728 5727 5727 5726 5726 5724 5723 5721 5719 5717 5715 5713 5711 5709 5706 5704 5702 5699 5696 5693
5695 5697 5699 5701 5703 5705 5707 5709 5710 5712 5713 5715 5716 5717 5718 5718 5719 5719 5719 5719 5719 5718 5718 5717 5717 5717 5716 5716 5715 5714 5713 5711 5709 5707 5705 5704 5702 5699 5697 5694 5691 5689 5686 5683
5688 5690 5692 5694 5695 5697 5699 5700 5702 5703 5705 5706 5707 5708 5709 5709 5709 5709 5709 5709 5709 5708 5708 5708 5708 5707 5707 5706 5705 5704 5703 5701 5699 5698 5696 5694 5692 5690 5687 5685 5682 5679 5676 5673
5682 5683 5685 5686 5687 5689 5691 5692 5693 5695 5696 5697 5698 5698 5699 5700 5700 5700 5700 5700 5699 5699 5699 5698 5698 5698 5697 5697 5696 5694 5693 5692 5690 5689 5687 5685 5683 5680 5678 5675 5672 5669 5666 5663
5676 5677 5678 5679 5680 5682 5683 5684 5686 5687 5688 5689 5689 5690 5691 5691 5692 5692 5692 5691 5691 5690 5690 5690 5689 5689 5688 5688 5687 5686 5685 5683 5682 5680 5678 5676 5673 5671 5668 5665 5662 5659 5656 5653
5671 5671 5672 5673 5674 5675 5677 5678 5679 5680 5680 5681 5682 5682 5683 5683 5683 5683 5683 5683 5682 5682 5682 5682 5681 5681 5680 5680 5679 5677 5676 5674 5672 5670 5668 5666 5664 5661 5658 5655 5652 5649 5646 5643
Wind_Speed
29 27 27 26 26 25 24 23 21 21 20 19 18 17 16 16 15 15 15 15 16 16 15 15 15 14 14 14 14 14 14 14 14 14 14 14 15 15 15 16 16 16 16 16
31 30 29 28 27 26 26 25 24 23 22 21 20 19 18 18 18 17 16 17 17 17 17 17 16 16 16 17 17 16 16 16 16 16 16 16 16 17 17 17 17 17 17 17
30 31 31 32 30 28 28 27 27 25 23 23 22 22 21 20 20 19 18 18 18 18 18 18 18 18 18 19 19 19 18 18 18 18 18 18 18 18 18 18 19 19 18 18
30 31 33 31 30 30 29 28 28 25 25 25 24 23 22 21 20 20 20 20 19 19 19 20 20 20 20 20 20 20 20 20 20 20 20 19 19 19 19 20 20 20 20 21
31 32 32 32 31 30 30 30 28 26 26 25 25 24 23 22 21 21 21 21 20 20 21 21 21 21 21 22 22 22 22 22 22 21 21 20 21 22 22 22 22 22 23 23
33 32 32 32 31 30 30 32 29 28 27 26 26 25 25 23 23 22 22 22 22 22 22 22 22 22 22 23 23 23 23 23 23 23 23 23 24 24 24 24 25 25 25 26
34 33 32 32 31 29 31 30 29 29 28 28 28 27 25 24 24 23 23 24 24 24 24 24 23 23 24 24 24 24 25 25 25 26 26 26 27 27 26 27 27 28 28 28
34 34 32 33 31 31 30 30 30 29 29 28 28 28 27 26 25 24 24 24 25 25 25 25 25 25 25 26 26 27 27 27 27 28 28 28 28 29 29 29 29 29 30 30
35 35 33 33 32 31 30 30 31 30 29 28 29 28 28 27 25 25 25 26 26 26 26 26 27 27 27 28 29 30 30 29 28 28 28 29 29 30 30 31 31 32 32 33
37 36 35 33 32 31 30 30 30 30 30 29 29 29 29 29 28 27 27 28 28 28 29 29 29 30 31 31 31 31 31 31 31 31 31 31 31 32 32 32 33 33 34 33
36 35 35 34 33 32 32 31 31 31 31 31 30 30 30 30 30 30 29 29 30 30 31 31 30 31 31 32 32 32 32 33 33 33 32 32 33 34 34 34 35 35 34 35
36 35 35 34 33 33 32 33 33 32 33 33 32 32 32 32 31 32 31 31 32 32 32 32 32 32 33 33 33 33 34 34 34 34 34 35 35 35 36 36 36 36 36 36
35 34 35 34 34 33 33 33 34 33 34 34 33 34 33 32 32 32 31 32 32 32 32 33 33 34 34 34 35 36 36 37 37 36 37 37 37 37 37 37 37 38 38 38
36 35 35 34 34 34 33 33 33 33 33 34 35 35 34 34 33 33 33 33 33 33 33 34 35 35 35 35 36 36 37 37 37 37 37 37 38 38 38 38 38 38 38 38
36 36 35 34 33 34 33 34 34 34 34 34 34 34 34 34 34 34 34 34 34 34 34 34 35 35 36 37 37 37 36 37 36 37 37 37 38 38 39 39 39 38 38 38
36 35 35 34 33 32 32 32 33 33 34 34 34 33 33 33 33 34 35 34 34 34 35 35 35 36 37 36 36 36 36 35 35 35 36 37 37 38 37 37 38 38 38 38
34 35 34 33 32 32 31 31 31 32 32 33 33 32 32 32 32 33 35 36 36 36 36 36 37 37 38 37 35 34 34 35 35 35 35 36 37 38 37 37 37 38 38 38
32 33 33 32 32 31 31 31 31 31 32 32 32 32 33 33 33 33 33 34 35 35 35 36 37 38 37 37 35 35 35 35 35 36 36 36 37 37 37 38 38 38 38 38
31 31 32 32 31 31 30 30 30 31 31 31 31 32 32 32 32 32 33 34 35 36 36 37 37 37 37 37 37 37 37 38 37 37 37 37 37 37 37 37 37 37 37 37
29 30 31 31 30 29 29 29 30 31 31 30 31 31 32 32 32 32 33 34 34 35 35 35 35 35 35 36 36 37 37 36 37 37 36 36 36 36 36 37 37 37 37 38
27 28 29 30 30 30 30 30 30 30 31 30 30 29 30 31 32 32 32 33 33 33 33 33 33 33 34 35 35 36 36 36 35 36 36 36 35 35 35 36 36 36 37 37
25 27 28 28 29 29 29 29 29 30 30 30 30 30 30 30 30 31 31 32 32 32 32 33 33 33 32 33 33 34 34 34 34 34 35 35 34 34 34 34 35 35 35 35
24 25 26 27 28 28 29 29 29 29 29 30 30 30 31 30 30 30 30 31 31 31 32 32 32 31 31 32 32 32 33 33 33 33 33 33 33 33 33 34 34 34 34 34
22 23 25 26 27 27 27 28 29 29 29 29 29 30 30 29 29 29 29 29 30 31 31 31 31 31 31 31 31 32 31 31 31 32 32 32 32 33 34 34 34 34 34 34
20 21 22 23 24 24 25 25 27 27 27 27 27 28 28 27 27 27 27 27 27 28 29 29 29 30 30 30 30 29 28 29 29 30 30 31 32 32 32 32 33 33 33 34
18 19 20 21 22 22 22 23 23 24 25 25 25 26 27 26 26 27 27 27 27 27 27 27 27 27 27 28 28 27 27 27 27 28 29 30 31 32 32 32 33 33 33 34
14 16 17 18 19 21 22 23 23 23 24 24 25 25 25 26 26 26 25 26 26 26 26 26 25 25 25 25 25 26 26 27 27 28 28 29 30 31 32 32 32 32 33 32
Wind_Direction
231 233 235 234 234 233 235 239 244 249 250 252 254 252 252 253 256 261 263 262 263 266 267 267 269 269 270 273 273 274 275 276 278 278 278 279 279 280 282 285 288 292 291 293
234 235 237 237 236 237 239 242 245 249 252 252 253 252 253 254 256 259 262 263 264 265 267 266 268 271 273 274 275 273 274 277 278 279 279 280 280 281 281 284 287 289 289 291
235 236 238 238 237 240 243 245 246 248 251 252 252 253 253 254 255 257 259 261 263 264 265 267 267 269 273 276 277 277 277 276 278 278 278 279 280 281 281 283 286 289 287 289
235 236 237 238 239 240 242 245 248 249 249 251 252 255 256 256 256 256 258 261 261 262 266 266 264 267 270 272 274 275 276 278 278 278 277 277 279 281 283 285 286 287 288 289
235 238 240 240 240 241 243 245 247 249 250 251 252 255 257 258 257 257 259 261 262 264 265 265 264 265 268 270 271 272 274 276 276 275 276 277 279 281 283 284 287 288 289 289
234 236 240 244 243 243 246 247 246 248 250 251 251 253 256 257 257 257 259 261 262 264 264 264 265 266 268 270 271 272 274 274 275 276 276 277 278 279 281 282 285 288 289 291
236 239 242 244 245 245 246 248 248 249 250 250 251 251 254 256 257 258 259 261 263 263 263 264 265 266 268 269 271 273 274 275 276 277 278 278 278 278 279 282 284 286 288 289
237 240 243 245 246 246 248 248 248 248 248 249 251 251 253 255 257 260 261 262 263 264 264 264 265 266 270 269 270 273 274 275 275 275 277 278 278 278 280 281 282 284 286 288
239 241 243 246 248 248 249 248 248 247 247 248 250 251 252 254 257 260 262 263 263 264 265 266 267 267 269 271 273 274 275 274 275 276 276 277 278 280 281 281 282 283 285 286
240 242 244 247 248 250 249 249 248 248 248 248 250 252 254 255 257 260 262 263 263 265 265 267 268 269 270 271 273 274 274 274 275 277 277 277 279 280 281 282 282 284 285 286
241 242 244 245 247 248 248 248 249 249 248 248 249 252 254 256 258 259 261 261 263 265 266 267 268 269 271 272 273 273 274 274 274 276 279 279 279 280 281 282 283 283 284 286
240 241 242 244 245 246 247 247 248 249 249 249 250 252 254 255 256 258 260 262 263 264 265 266 267 269 270 272 275 275 275 274 274 276 278 280 281 281 282 282 282 282 283 285
240 242 243 244 245 246 248 247 247 249 250 250 251 252 254 256 256 256 258 261 262 262 264 265 266 267 269 271 273 274 275 275 277 277 278 279 280 281 282 282 283 283 283 285
239 242 243 244 245 246 247 248 248 249 251 252 252 253 254 255 256 257 259 260 260 261 263 265 267 267 268 270 271 273 275 276 276 277 278 278 279 280 281 282 283 284 284 285
239 241 243 244 245 246 247 249 250 251 251 251 253 253 253 254 255 256 258 259 260 262 263 265 267 268 269 271 272 273 275 276 277 278 278 279 280 281 283 283 283 284 285 285
238 239 241 244 246 247 248 249 250 251 251 252 253 253 253 254 255 256 258 260 262 263 264 265 266 268 268 270 273 274 275 276 277 278 279 280 281 282 284 285 284 285 285 286
238 238 240 242 244 246 248 250 251 251 252 253 254 254 255 255 256 258 259 261 262 264 264 265 267 268 269 271 272 273 275 277 278 279 280 280 281 282 283 284 285 285 285 286
239 237 238 240 242 245 247 249 250 252 253 254 254 255 256 257 257 259 261 262 261 263 265 266 268 269 270 271 272 273 275 276 277 278 280 281 282 284 285 284 285 285 285 286
236 237 239 241 242 243 245 248 250 252 253 253 254 256 257 258 260 261 261 263 264 265 266 266 267 267 269 269 270 272 275 276 277 278 280 282 284 284 284 285 285 286 287 288
240 241 239 240 242 245 247 249 251 252 253 253 254 255 257 258 260 262 263 265 266 266 266 267 268 268 268 270 271 273 275 277 278 279 282 283 283 283 284 284 285 285 287 289
241 239 239 240 242 244 246 249 250 251 252 253 255 256 258 260 262 264 265 266 267 267 268 268 269 269 269 271 272 274 276 277 279 281 282 283 283 283 283 285 285 287 288 290
240 239 240 241 243 245 246 249 252 253 254 256 257 258 260 262 263 263 265 266 266 267 269 269 269 269 270 272 274 275 276 278 280 281 282 283 283 284 285 287 288 289 289 290
240 240 242 243 245 247 248 250 253 254 256 257 259 260 262 264 266 267 268 267 267 268 270 270 270 269 269 272 274 275 277 279 279 280 281 282 284 286 288 289 290 290 290 291
241 243 245 246 246 248 250 251 253 255 257 258 260 262 264 266 267 269 270 270 270 271 271 270 269 270 272 273 275 277 278 279 280 282 283 284 286 288 289 289 290 291 291 292
245 246 246 247 249 249 250 252 253 254 256 258 261 262 264 265 267 268 269 269 270 271 271 269 269 269 271 273 276 278 279 280 282 283 284 285 287 289 289 290 292 292 292 292
249 247 247 248 249 249 250 252 254 254 257 259 259 261 263 264 265 267 268 268 269 270 270 270 269 270 271 275 279 280 280 281 282 284 285 286 288 290 291 292 293 293 292 292
250 248 247 246 247 249 251 252 255 257 258 258 259 260 262 264 266 268 268 268 269 269 269 270 271 272 274 277 280 281 282 282 284 287 288 289 290 291 292 293 293 294 294 294